Regional Weather Roundup
Issued by NWS

Home | Current Version | Previous Version | Text Only | Print | Product List | Glossary On
Versions: 1 2 3 4 5 6 7 8 9 10 11 12 13 14 15 16 17 18 19 20 21 22 23 24 25 26 27 28 29 30 31 32 33 34 35 36 37 38 39 40 41 42 43 44 45 46 47 48 49 50
000
ASUS44 KEWX 221202
RWRTX
SOUTH TEXAS REGIONAL WEATHER ROUNDUP
NATIONAL WEATHER SERVICE AUSTIN/SAN ANTONIO TX
600 AM CST MON DEC 22 2014

NOTE: "FAIR" INDICATED FEW OR NO CLOUDS BELOW 12,000 FEET WITH NO
SIGNIFICANT WEATHER AND/OR OBSTRUCTIONS TO VISIBILITY.

* - THESE STATIONS ARE NOT NWS OR FAA STATIONS...AND ARE NOT SUBJECT
    TO NWS AND FAA QUALITY CONTROL.

TXZ171-172-183>190-221300-
TEXAS HILL COUNTRY AND EDWARDS PLATEAU

CITY           SKY/WX    TMP DP  RH WIND       PRES   REMARKS
JUNCTION       CLOUDY    53  50  89 SW7       29.74R
6HR MIN TEMP:  53; 6HR MAX TEMP:  54;

*LLANO         MOCLDY    52  52 100 W3        29.73S
BURNET         MOCLDY    53  50  89 S5        29.71F
6HR MIN TEMP:  52; 6HR MAX TEMP:  55;

*HORSESHOE BAY MOCLDY    56  52  85 SW5       29.69S
6HR MIN TEMP:  55; 6HR MAX TEMP:  56;

*KERRVILLE     CLOUDY    52  51  95 SW7       29.76S
6HR MIN TEMP:  51; 6HR MAX TEMP:  52;

*FREDERICKSBRG CLOUDY    52  51  96 SW10G18   29.74S
*ROCKSPRINGS   FOG       50  50 100 S7        29.78S VSB 1/4 WCI  47
*BOERNE STAGE  CLOUDY    54  52  94 SW12      29.76F
*CASTROVILLE   CLOUDY    56  56  99 CALM      29.79F FOG
HONDO          CLOUDY    55  54  96 SW3       29.79S
6HR MIN TEMP:  54; 6HR MAX TEMP:  55;

*UVALDE        CLOUDY    53  53 100 CALM      29.78F FOG
6HR MIN TEMP:  48; 6HR MAX TEMP:  53;

DEL RIO        FOG       53  53 100 SE3       29.76S VSB 3/4
6HR MIN TEMP:  50; 6HR MAX TEMP:  53;

LAUGHLIN AFB   CLOUDY    53  47  80 SE5       29.77S FOG
6HR MIN TEMP:  48; 6HR MAX TEMP:  53;

CARRIZO SPRGS  CLOUDY    55  54  94 CALM      29.77R
$$

TXZ173-191>194-202-209-217>225-228-221300-
CENTRAL AND SOUTH CENTRAL TEXAS

CITY           SKY/WX    TMP DP  RH WIND       PRES   REMARKS
GEORGETOWN     CLOUDY    57  52  82 SW17      29.68S
6HR MIN TEMP:  55; 6HR MAX TEMP:  59;

AUSTIN/BERGSTM MOCLDY    57  55  93 S14       29.72F
6HR MIN TEMP:  56; 6HR MAX TEMP:  57;

AUSTIN/MABRY   CLOUDY    58  54  86 S8        29.73F
6HR MIN TEMP:  56; 6HR MAX TEMP:  58;

*AUSTIN/EXEC   CLOUDY    57  54  88 SW12      29.72F
*LAGO VISTA    CLOUDY    57  54  87 SW8G20    29.72S
6HR MIN TEMP:  56; 6HR MAX TEMP:  57;

SAN MARCOS     CLOUDY    57  54  88 SW14      29.74S
6HR MIN TEMP:  55; 6HR MAX TEMP:  57;

NEW BRAUNFELS  CLOUDY    58  55  90 SW14      29.74F
6HR MIN TEMP:  56; 6HR MAX TEMP:  58;

RANDOLPH AFB   CLOUDY    56  55  96 S8        29.76F
6HR MIN TEMP:  55; 6HR MAX TEMP:  56;

PT SAN ANTONIO CLOUDY    56  56  99 SW2       29.75F
6HR MIN TEMP:  55; 6HR MAX TEMP:  56;

SAN ANTONIO    CLOUDY    57  55  93 SW6       29.76F FOG
6HR MIN TEMP:  56; 6HR MAX TEMP:  57; 6HR PCP: TRACE;

STINSON FIELD  CLOUDY    56  55  97 CALM      29.75F FOG
6HR MIN TEMP:  55; 6HR MAX TEMP:  56;

*PLEASANTON    CLOUDY    57  56  97 CALM      29.78R FOG
6HR MIN TEMP:  56; 6HR MAX TEMP:  57;

*LA GRANGE     CLOUDY    59  59  99 S7        29.74S FOG
*GIDDINGS      CLOUDY    57  56  97 SW8G20    29.76F FOG
6HR MIN TEMP:  56; 6HR MAX TEMP:  57;

*GONZALES      NOT AVBL
$$

TXZ163>164-176>182-195>201-210>213-226-227-235-221300-
SOUTHEAST TEXAS

CITY           SKY/WX    TMP DP  RH WIND       PRES   REMARKS
COLLEGE STN    CLOUDY    58  57  97 S10       29.72F
6HR MIN TEMP:  56; 6HR MAX TEMP:  58;

*BRYAN         CLOUDY    57  57  97 S9        29.73F FOG
6HR MIN TEMP:  55; 6HR MAX TEMP:  57;

*CALDWELL      CLOUDY    57  57 100 S14       29.75F
*CROCKETT      CLOUDY    57  57 100 S10G16    29.74F
*BRENHAM       CLOUDY    60  59  97 S10       29.75F FOG
6HR MIN TEMP:  58; 6HR MAX TEMP:  60;

HUNTSVILLE     CLOUDY    59  57  93 S14       29.72F
6HR MIN TEMP:  55; 6HR MAX TEMP:  59;

CONROE         CLOUDY    58  56  93 S9        29.76F FOG
6HR MIN TEMP:  54; 6HR MAX TEMP:  58;

HOUSTON BUSH   MOCLDY    56  55  97 SE3       29.76S FOG
6HR MIN TEMP:  55; 6HR MAX TEMP:  57;

HOUSTON HOBBY  FOG       54  54 100 CALM      29.76S VSB 1/4
6HR MIN TEMP:  54; 6HR MAX TEMP:  58;

*HOUSTON SW AP FOG       46  46 100 S7        29.77F VSB 1/2 WCI  43
PEARLAND       PTCLDY    58  57  97 SE5       29.77F FOG
6HR MIN TEMP:  56; 6HR MAX TEMP:  59;

HOUSTON HOOKS  CLOUDY    58  57  97 CALM      29.76S FOG
6HR MIN TEMP:  57; 6HR MAX TEMP:  58;

ELLINGTON FLD  MOCLDY    59  57  94 CALM      29.78S
SUGAR LAND     MOCLDY    56  55  97 SE3       29.76S FOG
6HR MIN TEMP:  53; 6HR MAX TEMP:  57;

*HOUSTON EXEC  CLOUDY    57  57 100 S6        29.77S FOG
*CLEVELAND MUN CLOUDY    57  57  99 S3        29.78S FOG
*WHARTON       PTCLDY    58  58  98 S7        29.77S FOG
*COLUMBUS      FOG       58  57  99 SW5       29.76S VSB 1
$$

TXZ214>216-236>238-221300-
THE UPPER TEXAS COAST

CITY           SKY/WX    TMP DP  RH WIND       PRES   REMARKS
*ORANGE        FOG       55  55 100 E5        29.80F VSB 1/2
6HR MIN TEMP:  53; 6HR MAX TEMP:  55;

PORT ARTHUR    CLOUDY    58  56  93 SE8       29.78S FOG
6HR MIN TEMP:  53; 6HR MAX TEMP:  58;

GALVESTON      PTCLDY    62  61  96 SE10      29.77F
6HR MIN TEMP:  60; 6HR MAX TEMP:  63;

ANGLETON       PTCLDY    57  57 100 SW5       29.77S
6HR MIN TEMP:  53; 6HR MAX TEMP:  58;

*BAY CITY        N/A     60  60 100 S5        29.76F FOG
PALACIOS       MOCLDY    61  60  97 SW6       29.77S
6HR MIN TEMP:  59; 6HR MAX TEMP:  62;

$$

TXZ229>234-239>247-221300-
TEXAS COASTAL BEND AND RIO GRANDE PLAINS

CITY           SKY/WX    TMP DP  RH WIND       PRES   REMARKS
VICTORIA       FOG       61  60  97 SW6       29.78R VSB 1/2
6HR MIN TEMP:  57; 6HR MAX TEMP:  61;

*BEEVILLE      CLOUDY    60  60 100 SW7       29.78S FOG
6HR MIN TEMP:  58; 6HR MAX TEMP:  60;

ROCKPORT       CLOUDY    60  58  92 SW5       29.77R FOG
6HR MIN TEMP:  56; 6HR MAX TEMP:  60;

*PORT ARANSAS  MOCLDY    60  59  99 S6        29.77F
*PORT LAVACA   FOG       58  58 100 CALM      29.78S VSB 1/4
6HR MIN TEMP:  57; 6HR MAX TEMP:  60;

*INGLESIDE     CLOUDY    58  57  96 W3        29.78R FOG
CORPUS CHRISTI CLOUDY    59  59 100 S6        29.78R FOG
6HR MIN TEMP:  56; 6HR MAX TEMP:  60;

CORPUS NAS     PTCLDY    59  59 100 S7        29.78R
6HR MIN TEMP:  56; 6HR MAX TEMP:  60;

*ROBSTOWN      NOT AVBL
ALICE          CLOUDY    62  59  90 S8        29.77S
6HR MIN TEMP:  60; 6HR MAX TEMP:  62;

KINGSVILLE NAS FOG       58  58 100 S5        29.78S VSB 1/4
6HR MIN TEMP:  58; 6HR MAX TEMP:  61;

COTULLA        CLOUDY    58  54  86 S3        29.76F
6HR MIN TEMP:  55; 6HR MAX TEMP:  59;

LAREDO         NOT AVBL
$$

TXZ248>255-221300-
DEEP SOUTH TEXAS

CITY           SKY/WX    TMP DP  RH WIND       PRES   REMARKS
BROWNSVILLE    CLOUDY    63  62  97 S10       29.79S FOG
6HR MIN TEMP:  58; 6HR MAX TEMP:  64;

PORT ISABEL    PTCLDY    61  60  97 S8        29.79R FOG
6HR MIN TEMP:  58; 6HR MAX TEMP:  63;

*SOUTH PADRE   CLEAR    N/A N/A N/A CALM      29.79R
HARLINGEN      CLOUDY    62  61  96 S10       29.79R FOG
6HR MIN TEMP:  57; 6HR MAX TEMP:  64;

*HEBBRONVILLE  HVY RAIN  57  56  97 S8        29.78R
MCALLEN        CLOUDY    61  61 100 S9        29.80R FOG
6HR MIN TEMP:  56; 6HR MAX TEMP:  61;

*WESLACO       FOG       60  58  92 S7        29.79S VSB 1/2
FALFURRIAS     NOT AVBL
EDINBURG       CLOUDY    62  60  93 S6        29.79S FOG
6HR MIN TEMP:  55; 6HR MAX TEMP:  62;

*ZAPATA        CLOUDY    58  58 100 S10G17    29.75F
$$



USA.gov is the U.S. government's official web portal to all federal, state and local government web resources and services.